TimeCDT,TemperatureF,Dew PointF,Humidity,Sea Level PressureIn,VisibilityMPH,Wind Direction,Wind SpeedMPH,Gust SpeedMPH,PrecipitationIn,Events,Conditions,WindDirDegrees,DateUTC
12:15 AM,60.8,50.0,68,29.97,10.0,Calm,Calm,-,N/A,,Clear,0,2012-10-16 05:15:00
12:35 AM,60.8,50.0,68,29.96,10.0,Calm,Calm,-,N/A,,Clear,0,2012-10-16 05:35:00
12:55 AM,60.8,50.0,68,29.95,10.0,Calm,Calm,-,N/A,,Clear,0,2012-10-16 05:55:00
1:15 AM,60.8,51.8,72,29.94,10.0,Calm,Calm,-,N/A,,Clear,0,2012-10-16 06:15:00
1:35 AM,59.0,50.0,72,29.94,10.0,Calm,Calm,-,N/A,,Clear,0,2012-10-16 06:35:00
1:55 AM,59.0,50.0,72,29.94,10.0,Calm,Calm,-,N/A,,Clear,0,2012-10-16 06:55:00
2:15 AM,59.0,50.0,72,29.93,10.0,Calm,Calm,-,N/A,,Clear,0,2012-10-16 07:15:00
2:35 AM,59.0,50.0,72,29.93,10.0,Calm,Calm,-,N/A,,Clear,0,2012-10-16 07:35:00
2:55 AM,59.0,50.0,72,29.92,10.0,Calm,Calm,-,N/A,,Clear,0,2012-10-16 07:55:00
3:15 AM,59.0,50.0,72,29.91,10.0,Calm,Calm,-,N/A,,Clear,0,2012-10-16 08:15:00
3:35 AM,59.0,50.0,72,29.92,10.0,Calm,Calm,-,N/A,,Clear,0,2012-10-16 08:35:00
3:55 AM,59.0,50.0,72,29.91,10.0,Calm,Calm,-,N/A,,Clear,0,2012-10-16 08:55:00
4:15 AM,59.0,50.0,72,29.90,10.0,Calm,Calm,-,N/A,,Clear,0,2012-10-16 09:15:00
4:35 AM,59.0,50.0,72,29.89,10.0,Calm,Calm,-,N/A,,Clear,0,2012-10-16 09:35:00
5:15 AM,59.0,50.0,72,29.89,10.0,Calm,Calm,-,N/A,,Clear,0,2012-10-16 10:15:00
5:35 AM,57.2,50.0,77,29.88,10.0,Calm,Calm,-,N/A,,Clear,0,2012-10-16 10:35:00
6:15 AM,59.0,50.0,72,29.88,10.0,Calm,Calm,-,N/A,,Clear,0,2012-10-16 11:15:00
6:35 AM,57.2,50.0,77,29.88,10.0,Calm,Calm,-,N/A,,Clear,0,2012-10-16 11:35:00
7:15 AM,57.2,51.8,82,29.88,10.0,Calm,Calm,-,N/A,,Clear,0,2012-10-16 12:15:00
7:35 AM,59.0,51.8,77,29.88,10.0,Calm,Calm,-,N/A,,Clear,0,2012-10-16 12:35:00
7:55 AM,57.2,51.8,82,29.88,10.0,Calm,Calm,-,N/A,,Scattered Clouds,0,2012-10-16 12:55:00
8:35 AM,59.0,51.8,77,29.87,10.0,Calm,Calm,-,N/A,,Clear,0,2012-10-16 13:35:00
8:55 AM,60.8,51.8,72,29.87,10.0,Calm,Calm,-,N/A,,Clear,0,2012-10-16 13:55:00
9:15 AM,60.8,51.8,72,29.87,10.0,SSE,4.6,-,N/A,,Clear,160,2012-10-16 14:15:00
9:35 AM,60.8,53.6,77,29.87,10.0,SSE,5.8,-,N/A,,Mostly Cloudy,160,2012-10-16 14:35:00
9:55 AM,62.6,53.6,72,29.87,10.0,South,5.8,-,N/A,,Scattered Clouds,180,2012-10-16 14:55:00
10:15 AM,62.6,51.8,68,29.88,10.0,South,5.8,-,N/A,,Scattered Clouds,170,2012-10-16 15:15:00
11:15 AM,69.8,51.8,53,29.85,10.0,SSW,8.1,-,N/A,,Scattered Clouds,210,2012-10-16 16:15:00
11:35 AM,71.6,48.2,43,29.85,10.0,SSW,11.5,19.6,N/A,,Mostly Cloudy,210,2012-10-16 16:35:00
11:55 AM,73.4,46.4,38,29.83,10.0,SSW,16.1,19.6,N/A,,Mostly Cloudy,200,2012-10-16 16:55:00
12:15 PM,73.4,46.4,38,29.82,10.0,SSW,16.1,21.9,N/A,,Scattered Clouds,210,2012-10-16 17:15:00
12:35 PM,73.4,48.2,41,29.82,10.0,South,12.7,20.7,N/A,,Scattered Clouds,180,2012-10-16 17:35:00
12:55 PM,75.2,50.0,41,29.80,10.0,SSW,11.5,17.3,N/A,,Clear,200,2012-10-16 17:55:00
1:15 PM,73.4,50.0,44,29.79,10.0,South,12.7,20.7,N/A,,Clear,190,2012-10-16 18:15:00
1:35 PM,77.0,50.0,39,29.77,10.0,South,16.1,21.9,N/A,,Clear,190,2012-10-16 18:35:00
1:55 PM,77.0,50.0,39,29.76,10.0,SSW,13.8,18.4,N/A,,Clear,200,2012-10-16 18:55:00
2:15 PM,77.0,51.8,41,29.74,10.0,SSW,12.7,19.6,N/A,,Clear,200,2012-10-16 19:15:00
2:35 PM,77.0,51.8,41,29.73,10.0,South,15.0,20.7,N/A,,Clear,180,2012-10-16 19:35:00
2:55 PM,77.0,51.8,41,29.72,10.0,SSW,11.5,21.9,N/A,,Clear,200,2012-10-16 19:55:00
3:15 PM,77.0,51.8,41,29.70,10.0,SSW,13.8,20.7,N/A,,Clear,210,2012-10-16 20:15:00
3:55 PM,77.0,51.8,41,29.68,10.0,SSW,11.5,23.0,N/A,,Clear,200,2012-10-16 20:55:00
4:15 PM,77.0,53.6,44,29.68,10.0,SSW,11.5,17.3,N/A,,Clear,200,2012-10-16 21:15:00
4:55 PM,77.0,53.6,44,29.67,10.0,SSW,9.2,19.6,N/A,,Clear,200,2012-10-16 21:55:00
5:15 PM,77.0,53.6,44,29.67,10.0,SSW,13.8,21.9,N/A,,Clear,200,2012-10-16 22:15:00
5:35 PM,75.2,53.6,47,29.66,10.0,South,12.7,18.4,N/A,,Clear,190,2012-10-16 22:35:00
5:55 PM,75.2,53.6,47,29.66,10.0,SSW,11.5,19.6,N/A,,Clear,210,2012-10-16 22:55:00
6:15 PM,73.4,55.4,53,29.65,10.0,South,10.4,19.6,N/A,,Clear,190,2012-10-16 23:15:00
6:35 PM,71.6,55.4,57,29.65,10.0,South,9.2,-,N/A,,Clear,180,2012-10-16 23:35:00
6:55 PM,71.6,55.4,57,29.64,10.0,South,10.4,-,N/A,,Clear,180,2012-10-16 23:55:00
7:15 PM,69.8,57.2,64,29.64,10.0,South,9.2,-,N/A,,Clear,170,2012-10-17 00:15:00
7:35 PM,69.8,57.2,64,29.63,10.0,South,9.2,-,N/A,,Clear,180,2012-10-17 00:35:00
7:55 PM,68.0,57.2,68,29.64,10.0,South,8.1,-,N/A,,Clear,170,2012-10-17 00:55:00
8:15 PM,68.0,57.2,68,29.64,10.0,South,9.2,-,N/A,,Clear,170,2012-10-17 01:15:00
8:35 PM,68.0,57.2,68,29.64,10.0,South,10.4,18.4,N/A,,Clear,170,2012-10-17 01:35:00
8:55 PM,68.0,55.4,64,29.64,10.0,South,10.4,-,N/A,,Clear,180,2012-10-17 01:55:00
9:15 PM,68.0,57.2,68,29.63,10.0,South,11.5,16.1,N/A,,Clear,180,2012-10-17 02:15:00
9:35 PM,66.2,57.2,73,29.64,10.0,South,8.1,18.4,N/A,,Clear,180,2012-10-17 02:35:00
9:55 PM,66.2,57.2,73,29.64,10.0,South,9.2,-,N/A,,Clear,190,2012-10-17 02:55:00
10:15 PM,66.2,57.2,73,29.65,10.0,South,6.9,-,N/A,,Clear,190,2012-10-17 03:15:00
10:35 PM,64.4,59.0,83,29.64,10.0,South,6.9,-,N/A,,Clear,180,2012-10-17 03:35:00
10:55 PM,64.4,59.0,83,29.64,10.0,South,8.1,-,N/A,,Clear,190,2012-10-17 03:55:00
11:15 PM,64.4,59.0,83,29.64,10.0,South,9.2,-,N/A,,Clear,190,2012-10-17 04:15:00
11:55 PM,64.4,59.0,83,29.64,10.0,SSW,9.2,-,N/A,,Clear,200,2012-10-17 04:55:00